When you browse on this site, cookies collect data to enhance your experience and personalize the content and advertising you see.
Visit our Privacy Policy to learn more. By continuing to use the site, you agree to this use of cookies and data.
  • In Hungary
  • List of Countries
  • For 7 days
  • Water Temperature
  • Satellite Maps
  • Weather Map
  • News
  • Weather Widgets
  • user-avatar
    Login

    Hourly Weather Nowa Kaletka

    Today, 9 December, Sunday

    Time Temperature Precipitation Wind Pressure Humidity
    00:00 +1°C° 0 mm 6 mps 734 mmHg 83%
    01:00 +1°C° 0 mm 6 mps 733 mmHg 85%
    02:00 +1°C° 0 mm 6 mps 733 mmHg 85%
    03:00 +2°C° 0 mm 6 mps 732 mmHg 86%
    04:00 +2°C° 0 mm 5 mps 732 mmHg 86%
    05:00 +1°C° 0 mm 5 mps 731 mmHg 87%
    06:00 +1°C° 0 mm 6 mps 731 mmHg 88%
    07:00 0°C° 0 mm 5 mps 730 mmHg 91%
    08:00 +1°C° 0.1 mm 6 mps 730 mmHg 89%
    09:00 +1°C° 0.1 mm 6 mps 729 mmHg 88%
    10:00 0°C° 0.1 mm 7 mps 729 mmHg 86%
    11:00 +2°C° 0.3 mm 7 mps 728 mmHg 86%
    12:00 +2°C° 0.3 mm 6 mps 728 mmHg 86%
    13:00 +3°C° 0 mm 5 mps 727 mmHg 87%
    14:00 +3°C° 0.1 mm 5 mps 728 mmHg 88%
    15:00 +3°C° 0.1 mm 5 mps 728 mmHg 90%
    16:00 +4°C° 0.1 mm 4 mps 728 mmHg 91%
    17:00 +4°C° 0.3 mm 4 mps 728 mmHg 91%
    18:00 +4°C° 0.3 mm 4 mps 728 mmHg 91%
    19:00 +3°C° 0.3 mm 5 mps 729 mmHg 91%
    20:00 +4°C° 0.2 mm 4 mps 729 mmHg 91%
    21:00 +3°C° 0.2 mm 4 mps 729 mmHg 91%
    22:00 +3°C° 0.2 mm 4 mps 730 mmHg 91%
    23:00 +3°C° 0 mm 4 mps 730 mmHg 92%

    Tomorrow, 10 December, Monday

    Time Temperature Precipitation Wind Pressure Humidity
    00:00 +3°C° 0 mm 4 mps 730 mmHg 93%
    01:00 +3°C° 0 mm 3 mps 730 mmHg 94%
    02:00 +3°C° 0.1 mm 3 mps 730 mmHg 95%
    03:00 +3°C° 0.1 mm 3 mps 730 mmHg 95%
    04:00 +3°C° 0.1 mm 3 mps 731 mmHg 95%
    05:00 +3°C° 0.3 mm 4 mps 731 mmHg 93%
    06:00 +3°C° 0.3 mm 4 mps 731 mmHg 90%
    07:00 +2°C° 0.3 mm 5 mps 731 mmHg 87%
    08:00 +2°C° 0.2 mm 5 mps 732 mmHg 83%
    09:00 +2°C° 0.2 mm 5 mps 733 mmHg 79%
    10:00 +1°C° 0.2 mm 6 mps 733 mmHg 75%
    11:00 +2°C° 0 mm 6 mps 734 mmHg 75%
    12:00 +2°C° 0 mm 5 mps 734 mmHg 74%
    13:00 +2°C° 0 mm 5 mps 735 mmHg 74%
    14:00 +2°C° 0 mm 5 mps 735 mmHg 75%
    15:00 +1°C° 0 mm 4 mps 736 mmHg 76%
    16:00 +1°C° 0 mm 4 mps 736 mmHg 77%
    17:00 +1°C° 0 mm 4 mps 736 mmHg 77%
    18:00 0°C° 0 mm 4 mps 736 mmHg 78%
    19:00 0°C° 0 mm 4 mps 737 mmHg 78%
    20:00 -1°C° 0 mm 4 mps 737 mmHg 80%
    21:00 -1°C° 0 mm 4 mps 737 mmHg 82%
    22:00 -2°C° 0 mm 4 mps 737 mmHg 85%
    23:00 -1°C° 0 mm 3 mps 737 mmHg 87%

    Day after tomorrow, 11 December, Tuesday

    Time Temperature Precipitation Wind Pressure Humidity
    00:00 -1°C° 0 mm 3 mps 738 mmHg 88%
    01:00 -1°C° 0 mm 3 mps 738 mmHg 90%
    02:00 -2°C° 0 mm 3 mps 738 mmHg 91%
    03:00 -2°C° 0 mm 2 mps 738 mmHg 92%
    04:00 -2°C° 0 mm 2 mps 738 mmHg 93%
    05:00 -2°C° 0 mm 2 mps 738 mmHg 93%
    06:00 -2°C° 0 mm 2 mps 739 mmHg 94%
    07:00 -2°C° 0 mm 2 mps 739 mmHg 94%
    08:00 -1°C° 0 mm 2 mps 739 mmHg 92%
    09:00 -1°C° 0 mm 2 mps 740 mmHg 90%
    10:00 +1°C° 0 mm 2 mps 740 mmHg 88%
    11:00 +1°C° 0 mm 2 mps 741 mmHg 86%
    12:00 +1°C° 0 mm 2 mps 741 mmHg 85%
    13:00 +2°C° 0 mm 2 mps 741 mmHg 83%
    14:00 +1°C° 0 mm 2 mps 742 mmHg 86%
    15:00 +1°C° 0 mm 2 mps 742 mmHg 88%
    16:00 -1°C° 0 mm 2 mps 743 mmHg 91%
    17:00 -1°C° 0 mm 2 mps 743 mmHg 91%
    18:00 -1°C° 0 mm 2 mps 744 mmHg 92%
    19:00 -1°C° 0 mm 2 mps 744 mmHg 93%
    20:00 0°C° 0 mm 1 mps 744 mmHg 93%
    21:00 0°C° 0 mm 1 mps 745 mmHg 93%
    22:00 0°C° 0 mm 1 mps 745 mmHg 93%
    23:00 0°C° 0 mm 1 mps 746 mmHg 93%

    12 December, Wednesday

    Time Temperature Precipitation Wind Pressure Humidity
    00:00 0°C° 0 mm 1 mps 746 mmHg 93%
    01:00 0°C° 0 mm 1 mps 746 mmHg 93%
    02:00 0°C° 0 mm 1 mps 747 mmHg 93%
    03:00 0°C° 0 mm 1 mps 747 mmHg 93%
    04:00 0°C° 0 mm 1 mps 747 mmHg 93%
    05:00 -1°C° 0 mm 1 mps 748 mmHg 93%
    06:00 -1°C° 0 mm 1 mps 748 mmHg 93%
    07:00 -1°C° 0 mm 1 mps 748 mmHg 93%
    08:00 0°C° 0 mm 1 mps 749 mmHg 91%
    09:00 0°C° 0 mm 1 mps 749 mmHg 88%
    10:00 +1°C° 0 mm 1 mps 749 mmHg 86%
    11:00 +1°C° 0 mm 1 mps 749 mmHg 85%
    12:00 +1°C° 0 mm 1 mps 750 mmHg 83%
    13:00 +2°C° 0 mm 1 mps 750 mmHg 82%
    14:00 -1°C° 0 mm 2 mps 750 mmHg 85%
    15:00 -2°C° 0 mm 2 mps 750 mmHg 89%
    16:00 -2°C° 0 mm 2 mps 750 mmHg 92%
    17:00 -2°C° 0 mm 2 mps 750 mmHg 93%
    18:00 -2°C° 0 mm 2 mps 750 mmHg 94%
    19:00 -2°C° 0 mm 2 mps 751 mmHg 95%
    20:00 -2°C° 0 mm 2 mps 751 mmHg 94%
    21:00 -2°C° 0 mm 2 mps 751 mmHg 93%
    22:00 -2°C° 0 mm 3 mps 751 mmHg 93%
    23:00 -2°C° 0 mm 3 mps 751 mmHg 92%

    13 December, Thursday

    Time Temperature Precipitation Wind Pressure Humidity
    00:00 -2°C° 0 mm 3 mps 751 mmHg 92%
    01:00 -2°C° 0 mm 3 mps 751 mmHg 91%
    02:00 -2°C° 0 mm 3 mps 751 mmHg 91%
    03:00 -2°C° 0 mm 3 mps 751 mmHg 91%
    04:00 -2°C° 0 mm 3 mps 751 mmHg 90%
    05:00 -2°C° 0.1 mm 3 mps 751 mmHg 90%
    06:00 -2°C° 0.1 mm 3 mps 751 mmHg 90%
    07:00 -2°C° 0.1 mm 3 mps 751 mmHg 90%
    08:00 -2°C° 0 mm 3 mps 751 mmHg 88%
    09:00 -1°C° 0 mm 3 mps 751 mmHg 86%
    10:00 -1°C° 0 mm 3 mps 751 mmHg 83%
    11:00 -1°C° 0 mm 3 mps 751 mmHg 82%
    12:00 -1°C° 0 mm 3 mps 750 mmHg 80%
    13:00 -1°C° 0 mm 3 mps 750 mmHg 79%
    14:00 -1°C° 0 mm 3 mps 750 mmHg 80%
    15:00 -2°C° 0 mm 3 mps 750 mmHg 81%
    16:00 -2°C° 0 mm 3 mps 750 mmHg 83%
    17:00 -2°C° 0 mm 2 mps 750 mmHg 84%
    18:00 -2°C° 0 mm 2 mps 750 mmHg 85%
    19:00 -2°C° 0 mm 2 mps 750 mmHg 86%
    20:00 -2°C° 0 mm 2 mps 750 mmHg 86%
    21:00 -2°C° 0 mm 2 mps 750 mmHg 87%
    22:00 -2°C° 0 mm 2 mps 750 mmHg 87%
    23:00 -2°C° 0 mm 2 mps 750 mmHg 88%

    14 December, Friday

    Time Temperature Precipitation Wind Pressure Humidity
    00:00 -2°C° 0 mm 2 mps 750 mmHg 88%
    01:00 -2°C° 0 mm 2 mps 750 mmHg 88%
    02:00 -2°C° 0 mm 2 mps 750 mmHg 89%
    03:00 -2°C° 0 mm 2 mps 750 mmHg 89%
    04:00 -2°C° 0 mm 2 mps 750 mmHg 89%
    05:00 -2°C° 0 mm 2 mps 750 mmHg 90%
    06:00 -2°C° 0 mm 2 mps 750 mmHg 90%
    07:00 -2°C° 0 mm 2 mps 750 mmHg 91%
    08:00 -2°C° 0 mm 2 mps 750 mmHg 88%
    09:00 -2°C° 0 mm 2 mps 750 mmHg 85%
    10:00 -1°C° 0 mm 3 mps 751 mmHg 82%
    11:00 -1°C° 0 mm 2 mps 750 mmHg 79%
    12:00 -1°C° 0 mm 2 mps 750 mmHg 77%
    13:00 -1°C° 0 mm 2 mps 750 mmHg 75%
    14:00 -1°C° 0 mm 2 mps 750 mmHg 79%
    15:00 -2°C° 0 mm 2 mps 750 mmHg 82%
    16:00 -3°C° 0 mm 2 mps 750 mmHg 86%
    17:00 -3°C° 0 mm 2 mps 750 mmHg 87%
    18:00 -2°C° 0 mm 2 mps 750 mmHg 88%
    19:00 -2°C° 0 mm 2 mps 750 mmHg 89%
    20:00 -3°C° 0 mm 2 mps 750 mmHg 90%
    21:00 -3°C° 0 mm 2 mps 751 mmHg 91%
    22:00 -3°C° 0 mm 2 mps 751 mmHg 92%
    23:00 -3°C° 0 mm 2 mps 751 mmHg 92%
    Show more